Flag for Germany Weather past 2 weeks in Schwabach, Bavaria, Germany

Now
68 °F

Passing clouds.


Feels Like: 68 °F
Forecast: 49 / 68 °F
Wind: 14 mph from West

Location: Nuernberg

Current Time: May 28, 2015 at 6:46:28 PM

Latest Report: May 28, 2015 at 5:50 PM


Visibility: N/A

Pressure: 29.95 "Hg

Humidity: 33%

Dew point: 37 °F

Location of SchwabachLocation

Historic Weather in Schwabach — Graph

°F

Schwabach temperature yesterday

Maximum temperature yesterday: 55 °F (at 5:20 PM)
Minimum temperature yesterday: 43 °F (at 11:50 PM)
Average temperature yesterday: 50 °F

Past Weeks' High & Low Weather Summary

 TemperatureHumidityPressure
High73 °F (May 18, 3:50 PM)100% (May 21, 2:20 AM)30.33 "Hg (May 21, 2:20 AM)
Low37 °F (May 22, 4:50 AM)27% (May 18, 6:20 PM)29.71 "Hg (May 18, 7:20 PM)
Average56 °F64%30.04 "Hg
* Reported May 13 5:20 PM — May 28 5:20 PM, Schwabach, Weather by CustomWeather, © 2015

Note: Actual official high and low records may vary slightly from our data, if they occured in-between our weather recording intervals... More about our weather records

Advertising

Schwabach weather history for previous 24 hours

 ConditionsComfort  
Time TempWeatherWind HumidityBarometerVisibility
5:20 PM
Thu, May 28
70 °FPassing clouds.10 mph33%29.95 "HgN/A
4:50 PM70 °FPassing clouds.10 mph33%29.98 "HgN/A
4:20 PM68 °FPassing clouds.9 mph35%29.98 "HgN/A
3:50 PM68 °FPassing clouds.12 mph35%29.98 "HgN/A
3:20 PM66 °FSunny.7 mph35%30.01 "Hg10 mi
2:50 PM66 °FPassing clouds.13 mph37%30.01 "HgN/A
2:20 PM64 °FSunny.7 mph40%30.01 "Hg10 mi
1:50 PM63 °FPassing clouds.10 mph39%30.04 "HgN/A
1:20 PM63 °FSunny.7 mph45%30.04 "Hg10 mi
12:50 PM63 °FSunny.3 mph39%30.04 "Hg10 mi
12:20 PM61 °FBroken clouds.7 mph45%30.07 "HgN/A
11:50 AM59 °FPassing clouds.6 mph48%30.07 "HgN/A
11:20 AM59 °FPassing clouds.5 mph48%30.07 "HgN/A
10:50 AM57 °FPassing clouds.7 mph51%30.09 "HgN/A
10:20 AM57 °FSunny.3 mph51%30.09 "Hg10 mi
9:50 AM55 °FPartly sunny.3 mph55%30.09 "HgN/A
9:20 AM54 °FSunny.3 mph63%30.09 "Hg10 mi
8:50 AM52 °FPassing clouds.5 mph62%30.09 "HgN/A
8:20 AM52 °FSunny.3 mph62%30.12 "Hg10 mi
7:50 AM48 °FPartly sunny.5 mph71%30.09 "HgN/A
7:20 AM46 °FBroken clouds.5 mph76%30.12 "HgN/A
6:50 AM45 °FBroken clouds.5 mph81%30.09 "HgN/A
6:20 AM43 °FPartly sunny.3 mph87%30.12 "HgN/A
5:50 AM43 °FPassing clouds.3 mph87%30.12 "HgN/A
5:20 AM43 °FPassing clouds.5 mph87%30.12 "HgN/A
4:50 AM43 °FPassing clouds.5 mph81%30.12 "HgN/A
4:20 AM41 °FPassing clouds.3 mph87%30.12 "HgN/A
3:50 AM41 °FPassing clouds.5 mph87%30.12 "HgN/A
3:20 AM41 °FPassing clouds.3 mph87%30.12 "HgN/A
2:50 AM41 °FPassing clouds.5 mph93%30.12 "HgN/A
2:20 AM41 °FPassing clouds.5 mph87%30.15 "HgN/A
1:50 AM41 °FClear.3 mph87%30.15 "Hg10 mi
1:20 AM39 °FClear.5 mph93%30.15 "Hg10 mi
12:50 AM41 °FClear.5 mph87%30.15 "Hg10 mi
12:20 AM41 °FClear.5 mph81%30.15 "Hg10 mi
11:50 PM
Wed, May 27
43 °FClear.1 mph81%30.18 "Hg10 mi
11:20 PM45 °FClear.1 mph76%30.18 "Hg10 mi
10:50 PM45 °FClear.2 mph76%30.18 "Hg10 mi
10:20 PM48 °FClear.2 mph71%30.18 "Hg10 mi
9:50 PM50 °FSunny.2 mph67%30.18 "Hg10 mi
9:20 PM50 °FSunny.1 mph67%30.18 "Hg10 mi
8:50 PM52 °FSunny.2 mph54%30.18 "Hg10 mi
8:20 PM54 °FSunny.2 mph51%30.18 "Hg10 mi
7:50 PM54 °FPassing clouds.3 mph51%30.18 "HgN/A
7:20 PM54 °FPassing clouds.5 mph51%30.18 "HgN/A
6:50 PM54 °FPassing clouds.5 mph51%30.18 "HgN/A
6:20 PM54 °FPassing clouds.5 mph51%30.18 "HgN/A
Weather by CustomWeather, © 2015

See weather overviewHow to use our weather pages